This demonstration page uses our WeatherBlox Daily Observations layout. Learn more.

Left ArrowRight Arrow

Hourly Observations for May 20, 2015

Temp ( °F °C ) Dew Point ( °F °C ) Humidity (%) Winds ( mph kmh ) Pressure ( in mb ) Visibility ( mi km ) Precip ( " mm )
12:52 am 00:52 Cloudy with Light Rain 50 10 41 5 71 71 ENE 8 13 30.22 1023 10 16 0.00 0.03
1:52 am 01:52 Cloudy with Light Rain 49 9.4 43 6.1 80 80 NNE 6 9 30.20 1023 10 16 0.03 0.76
2:52 am 02:52 Cloudy with Light Rain 48 8.9 44 6.7 86 86 NNW 5 7 30.22 1023 10 16 0.01 0.25
3:52 am 03:52 Cloudy 48 8.9 44 6.7 86 86 N 6 9 30.19 1023 10 16 0.01 0.25
4:52 am 04:52 Cloudy with Light Rain 47 8.3 44 6.7 90 90 N 8 13 30.18 1022 10 16 0.00 0.03
5:52 am 05:52 Cloudy 47 8.3 44 6.7 90 90 N 8 13 30.19 1023 10 16 0.02 0.51
6:52 am 06:52 Cloudy 47 8.3 44 6.7 90 90 N 8 13 30.21 1023 10 16 0.00 0.00
7:43 am 07:43 Cloudy 48 8.9 44 6.7 86 86 NNE 9 15 30.24 1024 10 16 0.00 0.00
7:52 am 07:52 Cloudy 48 8.9 44 6.7 86 86 NNE 12 19 30.22 1023 10 16 0.00 0.00
8:52 am 08:52 Cloudy with Drizzle 48 8.9 44 6.7 86 86 NNE 8 13 30.22 1024 5 8 0.00 0.03
9:52 am 09:52 Cloudy 49 9.4 43 6.1 80 80 NNE 9 15 30.24 1024 10 16 0.00 0.03
10:06 am 10:06 Cloudy 48 9 43 6 82 82 NNE 9 15 30.27 1025 10 16 0.00 0.00
10:28 am 10:28 Cloudy 48 9 43 6 82 82 N 8 13 30.27 1025 10 16 0.00 0.00
10:52 am 10:52 Cloudy 49 9.4 43 6.1 80 80 N 12 19 30.24 1024 10 16 0.00 0.03
11:52 am 11:52 Cloudy 51 10.6 43 6.1 74 74 NNE 8 13 30.24 1024 10 16 0.00 0.03
12:52 pm 12:52 Cloudy with Light Rain 50 10 43 6.1 77 77 NNE 12 19 30.25 1024 8 13 0.00 0.03
1:52 pm 13:52 Cloudy 51 10.6 44 6.7 77 77 N 12 19 30.25 1024 10 16 0.00 0.03
2:15 pm 14:15 Cloudy 51 10.6 43 6.1 74 74 N 10 17 30.27 1025 10 16 0.00 0.00
2:52 pm 14:52 Cloudy 50 10 43 6.1 77 77 N 10 17 30.25 1024 10 16 0.00 0.00
3:52 pm 15:52 Cloudy with Light Rain 49 9.4 43 6.1 80 80 NNW 14 22 30.25 1024 10 16 0.00 0.03
4:52 pm 16:52 Cloudy 50 10 43 6.1 77 77 NNE 10 17 30.24 1024 10 16 0.00 0.03
5:09 pm 17:09 Cloudy 52 11.1 43 6.1 72 72 N 9 15 30.27 1025 10 16 0.00 0.00
5:33 pm 17:33 Cloudy 51 10.6 42 5.6 71 71 NNE 10 17 30.27 1025 10 16 0.00 0.00
5:52 pm 17:52 Cloudy 51 10.6 42 5.6 71 71 NNE 10 17 30.24 1024 10 16 0.00 0.00
6:52 pm 18:52 Cloudy 50 10 43 6.1 77 77 N 9 15 30.24 1024 10 16 0.00 0.00
7:07 pm 19:07 Cloudy 50 10 42 5.6 74 74 N 10 17 30.27 1025 10 16 0.00 0.00
7:52 pm 19:52 Cloudy 49 9.4 42 5.6 77 77 N 10 17 30.24 1024 10 16 0.00 0.00
8:52 pm 20:52 Cloudy 49 9.4 42 5.6 77 77 N 8 13 30.24 1024 10 16 0.00 0.00
9:52 pm 21:52 Partly Cloudy 45 7.2 41 5 86 86 NNW 5 7 30.26 1025 10 16 0.00 0.00
10:52 pm 22:52 Clear 45 7.2 41 5 86 86 WNW 5 7 30.28 1025 10 16 0.00 0.00
11:52 pm 23:52 Clear 44 6.7 42 5.6 93 93 Calm 30.27 1025 10 16 0.00 0.00

Powered by AerisWeather